Regional Weather Roundup
Issued by NWS

Home | Current Version | Previous Version | Text Only | Print | Product List | Glossary On
Versions: 1 2 3 4 5 6 7 8 9 10 11 12 13 14 15 16 17 18 19 20 21 22 23 24 25 26 27 28 29 30 31 32 33 34 35 36 37 38 39 40 41 42 43 44 45 46 47 48 49 50
000
ASUS43 KDTX 251110
RWRMI
MICHIGAN HOURLY REGIONAL WEATHER ROUNDUP
NATIONAL WEATHER SERVICE DETROIT/PONTIAC MI
700 AM EDT MON MAY 25 2015

NOTE: "FAIR" INDICATES FEW OR NO CLOUDS BELOW 12,000 FEET WITH NO
SIGNIFICANT WEATHER AND/OR OBSTRUCTION TO VISIBILITY.

MIZ047>049-052>055-059>063-066>070-074>076-081>083-251200-
SOUTHEAST LOWER MICHIGAN

CITY           SKY/WX    TMP DP  RH WIND       PRES   REMARKS
ADRIAN         CLOUDY    67  54  63 SW10      30.01S
ALMA           MOCLDY    66  58  74 S8        29.93S
ANN ARBOR      MOCLDY    64  53  67 S7        30.00S
BAD AXE        MOCLDY    63  53  70 S9        29.97S
CARO           PTCLDY    66  55  68 S6        29.95S
DETROIT CITY   PTCLDY    66  54  65 S9        30.01S
DETROIT        CLOUDY    66  55  67 S8        30.01S
FLINT          FAIR      70  53  54 S9        29.97S
GROSSE ILE     MOCLDY    61  57  88 S6        30.00S
HILLSDALE      CLOUDY    68  56  64 S8        30.00R
HOWELL         PTCLDY    66  53  62 S8        29.98S

CITY           SKY/WX    TMP DP  RH WIND       PRES   REMARKS
JACKSON        CLOUDY    69  57  65 S12       29.98S
LAMBERTVILLE   CLOUDY    70  54  56 S6        30.02R
LANSING        PTCLDY    69  56  62 S9        29.96R
LAPEER         FAIR      69  53  56 SW13G20   29.99S
MASON          MOCLDY    67  56  67 S6        29.96S
MONROE         CLOUDY    66  54  63 S7        30.00S
MT. CLEMENS    PTCLDY    64  57  77 S9        29.99S
PONTIAC        MOCLDY    66  52  60 S8        30.00S
PORT HOPE        N/A     60  52  74 VRB7      29.94F
PORT HURON     PTCLDY    64  55  72 S8        30.01S
TRI CITIES     MOCLDY    67  55  65 S10       29.94R
MIDLAND        FAIR      64  55  73 S5        29.92S
TROY           MOCLDY    68  52  56 S6        30.02S
SAGINAW HB     PTCLDY    66  55  68 S10       29.94R
$$
MIZ043>046-050>051-056>058-064>065-071>073-077>080-251200-
SOUTHWEST LOWER MICHIGAN

CITY           SKY/WX    TMP DP  RH WIND       PRES   REMARKS
BATTLE CREEK   CLOUDY    72  59  63 S13G23    29.96R
BENTON HARBOR  CLOUDY    71  61  70 S9G17     29.90S
BIG RAPIDS     CLOUDY    57  55  90 CALM      29.90S FOG
COLDWATER      CLOUDY    69  57  64 S7        29.98R
FREMONT        FAIR      64  59  86 CALM      29.88S
HOLLAND        CLOUDY    70  60  70 S9        29.90S
GRAND RAPIDS   CLOUDY    70  59  68 S12       29.91S
IONIA          FAIR      66  57  74 S7        29.92S
KALAMAZOO      CLOUDY    70  59  68 S12       29.95R
LUDINGTON      CLOUDY    61  58  91 CALM      29.85F FOG
MARSHALL       CLOUDY    70  58  66 S7        29.96R
MOUNT PLEASANT MOCLDY    57  56  97 CALM      29.91S FOG
MUSKEGON       LGT RAIN  72  60  66 S15G29    29.88R
SOUTH HAVEN    CLOUDY    72  60  67 S13       29.90S
$$
MIZ016>042-251200-
NORTHERN LOWER MICHIGAN

CITY           SKY/WX    TMP DP  RH WIND       PRES   REMARKS
ALPENA         LGT RAIN  54  53  97 E5        29.96R FOG
BEAVER ISLAND  HVY RAIN  56  55  98 E10       29.89F
BELLAIRE       LGT RAIN  61  58  91 CALM      29.88F
CADILLAC       CLOUDY    59  57  95 CALM      29.89F
CHARLEVOIX     LGT RAIN  59  59 100 E5        29.90F
FRANKFORT      CLOUDY    64  58  80 CALM      29.85S
GAYLORD        LGT RAIN  57  57 100 S6        29.92F FOG
GRAYLING       CLOUDY    57  55  94 CALM      29.93S FOG
HARBOR SPRINGS HVY RAIN  58  57  97 NE7       29.90F
HOUGHTON LAKE  CLOUDY    58  55  90 SE3       29.92S
MANISTEE       CLOUDY    61  57  88 E5        29.86S
OSCODA         CLOUDY    51  49  92 SE5       29.94F
PELLSTON       HVY RAIN  58  57  97 NE8       29.92S FOG
ROGERS CITY    HVY RAIN  53  53  99 E7        29.96F
TRAVERSE CITY  LGT RAIN  61  58  90 S3        29.86F
$$
MIZ007>008-015-251200-
EASTERN UPPER MICHIGAN

CITY           SKY/WX    TMP DP  RH WIND       PRES   REMARKS
KINROSS        CLOUDY    54  54 100 E12       29.94F
MACKINAC ISLAN LGT RAIN  54  54 100 E10G18    29.92F
NEWBERRY       LGT RAIN  54  54  98 E6        29.91S
S. S. MARIE    LGT RAIN  54  53  97 E6        29.95F FOG
MUNISING         N/A     57  54  89 E9        29.85F
$$
MIZ004>006-011>014-085-251200-
CENTRAL UPPER MICHIGAN

CITY           SKY/WX    TMP DP  RH WIND       PRES   REMARKS
MANISTIQUE     RAIN      56  55  96 E10G17    29.87S
ESCANABA       CLOUDY    55  52  88 E8        29.84S
MENOMINEE      CLOUDY    54  50  87 E6        29.81F VSB 1/4
SAWYER-GWINN   LGT RAIN  55  55 100 E9        29.85F
$$
MIZ001>003-009>011-084-251200-
WESTERN UPPER MICHIGAN

CITY           SKY/WX    TMP DP  RH WIND       PRES   REMARKS
IRON MOUNTAIN  RAIN      55  54  96 E7        29.81S FOG
HOUGHTON       LGT RAIN  54  52  93 E9        29.84F FOG
COPPER HARBOR    N/A     55  52  89 CALM      29.86F
IRONWOOD       CLOUDY    57  57 100 E8        29.73F
$$

ABBREVIATIONS USED IN REMARKS
   TC - TEMPERATURE IN CELSIUS
  WCI - WIND CHILL INDEX
   HX - HEAT INDEX
  VSB - VISIBILITY




USA.gov is the U.S. government's official web portal to all federal, state and local government web resources and services.